{"data":{"norad_id":52611,"epoch":"2026-05-25T02:53:14.658720Z","epoch_age_seconds":54815,"freshness":"FRESH","line1":"1 52611U 22052P   26145.12030855 -.00000273  00000+0  96701-6 0  9999","line2":"2 52611  53.2145 301.0079 0001386  87.3930 272.7221 15.08835333222328","mean_motion":15.08835333,"eccentricity":0.0001386,"inclination_deg":53.2145,"raan_deg":301.0079,"arg_perigee_deg":87.393,"mean_anomaly_deg":272.7221,"bstar":9.6701e-7,"rev_number":22232,"period_min":95.437849877022,"perigee_km":538.79883395375,"apogee_km":540.71647435188,"semimajor_km":6917.8946541528,"source":"CELESTRAK","updated_at":"2026-05-25T13:38:17.199585Z"}}